"Period start","avg(HW err(1)/warn(2) (#))","avg(Visibility (m))","avg(Weather code (#))","avg(Precip intensity (mm/h))","min(HW err(1)/warn(2) (#))","max(HW err(1)/warn(2) (#))","std(HW err(1)/warn(2) (#))","med(HW err(1)/warn(2) (#))","min(Visibility (m))","max(Visibility (m))","std(Visibility (m))","med(Visibility (m))","min(Weather code (#))","max(Weather code (#))","std(Weather code (#))","med(Weather code (#))","min(Precip intensity (mm/h))","max(Precip intensity (mm/h))","std(Precip intensity (mm/h))","med(Precip intensity (mm/h))"
2016-01-17 00:00:00,1,,,,1,1,0,1,,,,,,,,,,,,
2016-01-17 00:10:00,1,,,,1,1,0,1,,,,,,,,,,,,
2016-01-17 00:20:00,1,,,,1,1,0,1,,,,,,,,,,,,
2016-01-17 00:30:00,1,,,,1,1,0,1,,,,,,,,,,,,
2016-01-17 00:40:00,1,,,,1,1,0,1,,,,,,,,,,,,
2016-01-17 00:50:00,1,,,,1,1,0,1,,,,,,,,,,,,
2016-01-17 01:00:00,1,,,,1,1,0,1,,,,,,,,,,,,
2016-01-17 01:10:00,1,,,,1,1,0,1,,,,,,,,,,,,
2016-01-17 01:20:00,1,,,,1,1,0,1,,,,,,,,,,,,
2016-01-17 01:30:00,1,,,,1,1,0,1,,,,,,,,,,,,
2016-01-17 01:40:00,1,,,,1,1,0,1,,,,,,,,,,,,
2016-01-17 01:50:00,1,,,,1,1,0,1,,,,,,,,,,,,
2016-01-17 02:00:00,1,,,,1,1,0,1,,,,,,,,,,,,
2016-01-17 02:10:00,1,,,,1,1,0,1,,,,,,,,,,,,
2016-01-17 02:20:00,1,,,,1,1,0,1,,,,,,,,,,,,
2016-01-17 02:30:00,1,4168,74,0.01,1,2,0,1,0,6486,2513,5094,71,78,4,74,0.00,0.05,0.02,0.00
2016-01-17 02:40:00,2,5698,77,0.04,2,2,0,2,3033,8882,1851,5735,77,78,0,77,0.00,0.05,0.02,0.05
2016-01-17 02:50:00,2,6253,77,0.04,2,2,0,2,4573,9448,1208,6038,77,77,0,77,0.00,0.15,0.04,0.05
2016-01-17 03:00:00,2,5861,72,0.05,1,2,0,2,0,8765,3148,6288,71,77,2,71,0.00,0.15,0.05,0.05
2016-01-17 03:10:00,1,18543,78,0.00,1,2,0,1,18543,18543,0,18543,78,78,0,78,0.00,0.00,0.00,0.00
2016-01-17 03:20:00,2,13863,78,0.01,1,2,0,2,0,19279,5299,15719,78,78,0,78,0.00,0.05,0.02,0.00
2016-01-17 03:30:00,2,25047,77,0.00,1,2,0,2,18117,29059,3918,25842,77,77,0,77,0.00,0.00,0.00,0.00
2016-01-17 03:40:00,2,16803,75,0.00,2,2,0,2,12454,22353,2790,16266,71,77,3,77,0.00,0.00,0.00,0.00
2016-01-17 03:50:00,2,14067,59,0.00,2,2,0,2,10172,17323,2155,13496,0,77,29,71,0.00,0.00,0.00,0.00
2016-01-17 04:00:00,2,14869,66,0.00,2,2,0,2,9917,17881,2220,15454,41,77,16,77,0.00,0.00,0.00,0.00
2016-01-17 04:10:00,2,14375,46,0.00,2,2,0,2,6708,23455,5736,14666,0,77,38,77,0.00,0.00,0.00,0.00
2016-01-17 04:20:00,2,22646,45,0.00,2,2,0,2,12747,30404,4738,23372,0,77,37,71,0.00,0.00,0.00,0.00
2016-01-17 04:30:00,2,33226,0,0.00,2,2,0,2,23748,39269,4195,33962,0,0,0,0,0.00,0.00,0.00,0.00
2016-01-17 04:40:00,2,40554,0,0.00,2,2,0,2,36755,44656,2421,41086,0,0,0,0,0.00,0.00,0.00,0.00
2016-01-17 04:50:00,2,39599,0,0.00,2,2,0,2,32913,46847,4872,39654,0,0,0,0,0.00,0.00,0.00,0.00
2016-01-17 05:00:00,2,33238,0,0.00,2,2,0,2,29649,37224,2197,33851,0,0,0,0,0.00,0.00,0.00,0.00
2016-01-17 05:10:00,2,37003,0,0.00,2,2,0,2,30527,43751,4067,36664,0,0,0,0,0.00,0.00,0.00,0.00
2016-01-17 05:20:00,2,35862,0,0.00,2,2,0,2,31775,39995,2696,35004,0,0,0,0,0.00,0.00,0.00,0.00
2016-01-17 05:30:00,2,29815,0,0.00,2,2,0,2,10200,46753,13454,35768,0,0,0,0,0.00,0.00,0.00,0.00
2016-01-17 05:40:00,2,9793,0,0.00,2,2,0,2,7001,13072,1981,9774,0,0,0,0,0.00,0.00,0.00,0.00
2016-01-17 05:50:00,2,13699,61,0.00,2,2,0,2,10331,21538,3248,12695,0,78,31,78,0.00,0.00,0.00,0.00
2016-01-17 06:00:00,2,17626,78,0.00,2,2,0,2,15227,23214,2297,17088,78,78,0,78,0.00,0.00,0.00,0.00
2016-01-17 06:10:00,2,19321,30,0.00,2,2,0,2,5354,30993,7759,19815,0,78,37,0,0.00,0.00,0.00,0.00
2016-01-17 06:20:00,2,30106,0,0.00,2,2,0,2,22291,39813,6128,28945,0,0,0,0,0.00,0.00,0.00,0.00
2016-01-17 06:30:00,2,21632,0,0.00,2,2,0,2,9842,34196,8065,21488,0,0,0,0,0.00,0.00,0.00,0.00
2016-01-17 06:40:00,2,17612,0,0.00,2,2,0,2,7998,30684,8279,15516,0,0,0,0,0.00,0.00,0.00,0.00
2016-01-17 06:50:00,2,24852,0,0.00,2,2,0,2,18765,32778,4434,24332,0,0,0,0,0.00,0.00,0.00,0.00
2016-01-17 07:00:00,2,24107,0,0.00,2,2,0,2,17527,31258,3806,24334,0,0,0,0,0.00,0.00,0.00,0.00
2016-01-17 07:10:00,2,30700,0,0.00,2,2,0,2,26545,35002,3183,30289,0,0,0,0,0.00,0.00,0.00,0.00
2016-01-17 07:20:00,2,26408,0,0.00,2,2,0,2,18168,36723,5881,25561,0,0,0,0,0.00,0.00,0.00,0.00
2016-01-17 07:30:00,2,22344,0,0.00,2,2,0,2,15004,29259,5077,24528,0,0,0,0,0.00,0.00,0.00,0.00
2016-01-17 07:40:00,2,34557,0,0.00,2,2,0,2,29104,40692,3698,33045,0,0,0,0,0.00,0.00,0.00,0.00
2016-01-17 07:50:00,2,18835,0,0.00,2,2,0,2,10128,34723,8241,16696,0,0,0,0,0.00,0.00,0.00,0.00
2016-01-17 08:00:00,2,24345,0,0.00,2,2,0,2,15437,32069,5368,25758,0,0,0,0,0.00,0.00,0.00,0.00
2016-01-17 08:10:00,2,31780,0,0.00,2,2,0,2,26277,41421,4283,30206,0,0,0,0,0.00,0.00,0.00,0.00
2016-01-17 08:20:00,2,31085,0,0.00,2,2,0,2,7954,45553,12541,36604,0,0,0,0,0.00,0.00,0.00,0.00
2016-01-17 08:30:00,2,14635,0,0.00,2,2,0,2,7443,25583,6631,13518,0,0,0,0,0.00,0.00,0.00,0.00
2016-01-17 08:40:00,2,21799,0,0.00,2,2,0,2,18294,25615,1955,21279,0,0,0,0,0.00,0.00,0.00,0.00
2016-01-17 08:50:00,2,17816,0,0.00,2,2,0,2,14738,24833,2929,16744,0,0,0,0,0.00,0.00,0.00,0.00
2016-01-17 09:00:00,2,14407,0,0.00,2,2,0,2,9550,21698,3210,14018,0,0,0,0,0.00,0.00,0.00,0.00
2016-01-17 09:10:00,2,25254,0,0.00,2,2,0,2,18904,32612,4419,24577,0,0,0,0,0.00,0.00,0.00,0.00
2016-01-17 09:20:00,2,23232,0,0.00,2,2,0,2,19385,26966,2414,22846,0,0,0,0,0.00,0.00,0.00,0.00
2016-01-17 09:30:00,2,33933,0,0.00,2,2,0,2,26932,37045,2748,34922,0,0,0,0,0.00,0.00,0.00,0.00
2016-01-17 09:40:00,2,33581,0,0.00,2,2,0,2,29253,39562,3407,32695,0,0,0,0,0.00,0.00,0.00,0.00
2016-01-17 09:50:00,2,33038,0,0.00,2,2,0,2,28356,37170,3122,33436,0,0,0,0,0.00,0.00,0.00,0.00
2016-01-17 10:00:00,2,23479,0,0.00,2,2,0,2,18759,36202,5810,20392,0,0,0,0,0.00,0.00,0.00,0.00
2016-01-17 10:10:00,2,20465,0,0.00,2,2,0,2,19372,21829,700,20342,0,0,0,0,0.00,0.00,0.00,0.00
2016-01-17 10:20:00,2,18594,0,0.00,2,2,0,2,15018,20763,1946,19106,0,0,0,0,0.00,0.00,0.00,0.00
2016-01-17 10:30:00,2,13106,0,0.00,2,2,0,2,10135,17718,2333,12396,0,0,0,0,0.00,0.00,0.00,0.00
2016-01-17 10:40:00,2,9626,0,0.00,2,2,0,2,7587,11132,1087,9766,0,0,0,0,0.00,0.00,0.00,0.00
2016-01-17 10:50:00,2,15195,0,0.00,2,2,0,2,12151,18882,2397,15020,0,0,0,0,0.00,0.00,0.00,0.00
2016-01-17 11:00:00,2,15393,22,0.00,2,2,0,2,14342,16705,894,15084,0,78,34,0,0.00,0.00,0.00,0.00
2016-01-17 11:10:00,2,17041,0,0.00,2,2,0,2,15449,17834,882,17559,0,0,0,0,0.00,0.00,0.00,0.00
2016-01-17 11:20:00,2,18038,0,0.00,2,2,0,2,16371,20922,1305,18156,0,0,0,0,0.00,0.00,0.00,0.00
2016-01-17 11:30:00,2,17008,0,0.00,2,2,0,2,14220,21935,1902,16764,0,0,0,0,0.00,0.00,0.00,0.00
2016-01-17 11:40:00,2,18426,0,0.00,2,2,0,2,14957,22453,2107,18524,0,0,0,0,0.00,0.00,0.00,0.00
2016-01-17 11:50:00,2,16499,0,0.00,2,2,0,2,14201,19189,1463,16468,0,0,0,0,0.00,0.00,0.00,0.00
2016-01-17 12:00:00,2,15765,0,0.00,2,2,0,2,13543,17038,1048,15939,0,0,0,0,0.00,0.00,0.00,0.00
2016-01-17 12:10:00,2,16356,0,0.00,2,2,0,2,14355,18329,1194,16581,0,0,0,0,0.00,0.00,0.00,0.00
2016-01-17 12:20:00,2,14770,0,0.00,2,2,0,2,13867,15438,531,14772,0,0,0,0,0.00,0.00,0.00,0.00
2016-01-17 12:30:00,2,11900,0,0.00,2,2,0,2,9450,14773,1871,11454,0,0,0,0,0.00,0.00,0.00,0.00
2016-01-17 12:40:00,2,13852,0,0.00,2,2,0,2,12312,14795,700,13908,0,0,0,0,0.00,0.00,0.00,0.00
2016-01-17 12:50:00,2,16526,0,0.00,2,2,0,2,14490,18054,902,16620,0,0,0,0,0.00,0.00,0.00,0.00
2016-01-17 13:00:00,2,16703,0,0.00,2,2,0,2,14821,18879,1162,16748,0,0,0,0,0.00,0.00,0.00,0.00
2016-01-17 13:10:00,2,15191,0,0.00,2,2,0,2,13283,17335,1357,15444,0,0,0,0,0.00,0.00,0.00,0.00
2016-01-17 13:20:00,2,15958,0,0.00,2,2,0,2,12390,20797,2508,15654,0,0,0,0,0.00,0.00,0.00,0.00
2016-01-17 13:30:00,2,14756,0,0.00,2,2,0,2,13385,18421,1697,13968,0,0,0,0,0.00,0.00,0.00,0.00
2016-01-17 13:40:00,2,11500,0,0.00,2,2,0,2,10619,12367,508,11348,0,0,0,0,0.00,0.00,0.00,0.00
2016-01-17 13:50:00,2,11059,0,0.00,2,2,0,2,8878,12303,954,11296,0,0,0,0,0.00,0.00,0.00,0.00
2016-01-17 14:00:00,2,8815,4,0.00,2,2,0,2,7567,10388,1021,8592,0,10,5,0,0.00,0.00,0.00,0.00
2016-01-17 14:10:00,2,8576,10,0.00,2,2,0,2,4574,12275,2944,8848,10,10,0,10,0.00,0.00,0.00,0.00
2016-01-17 14:20:00,2,9181,10,0.00,2,2,0,2,6497,11185,1235,9506,10,10,0,10,0.00,0.00,0.00,0.00
2016-01-17 14:30:00,2,6005,10,0.00,2,2,0,2,3251,8688,2128,6024,10,10,0,10,0.00,0.00,0.00,0.00
2016-01-17 14:40:00,2,3636,10,0.00,2,2,0,2,3116,4116,336,3642,10,10,0,10,0.00,0.00,0.00,0.00
2016-01-17 14:50:00,2,4242,10,0.00,2,2,0,2,3625,5333,569,4062,10,10,0,10,0.00,0.00,0.00,0.00
2016-01-17 15:00:00,2,6585,10,0.00,2,2,0,2,5054,7797,796,6786,10,10,0,10,0.00,0.00,0.00,0.00
2016-01-17 15:10:00,2,5711,10,0.00,2,2,0,2,4408,6965,920,6036,10,10,0,10,0.00,0.00,0.00,0.00
2016-01-17 15:20:00,2,5736,10,0.00,2,2,0,2,5243,6441,328,5732,10,10,0,10,0.00,0.00,0.00,0.00
2016-01-17 15:30:00,2,5748,10,0.00,2,2,0,2,4512,7204,879,5684,10,10,0,10,0.00,0.00,0.00,0.00
2016-01-17 15:40:00,2,6358,10,0.00,2,2,0,2,5711,6978,415,6376,10,10,0,10,0.00,0.00,0.00,0.00
2016-01-17 15:50:00,2,6824,10,0.00,2,2,0,2,6354,7159,270,6852,10,10,0,10,0.00,0.00,0.00,0.00
2016-01-17 16:00:00,2,7121,10,0.00,2,2,0,2,6561,8148,427,7072,10,10,0,10,0.00,0.00,0.00,0.00
2016-01-17 16:10:00,2,7618,10,0.00,2,2,0,2,7404,8128,198,7568,10,10,0,10,0.00,0.00,0.00,0.00
2016-01-17 16:20:00,2,7168,10,0.00,2,2,0,2,6679,7676,373,7100,10,10,0,10,0.00,0.00,0.00,0.00
2016-01-17 16:30:00,2,7561,10,0.00,2,2,0,2,6716,8186,395,7541,10,10,0,10,0.00,0.00,0.00,0.00
2016-01-17 16:40:00,2,6286,10,0.00,2,2,0,2,5163,6907,544,6414,10,10,0,10,0.00,0.00,0.00,0.00
2016-01-17 16:50:00,2,6623,10,0.00,2,2,0,2,5676,7228,468,6772,10,10,0,10,0.00,0.00,0.00,0.00
2016-01-17 17:00:00,2,6476,10,0.00,2,2,0,2,5686,7802,670,6186,10,10,0,10,0.00,0.00,0.00,0.00
2016-01-17 17:10:00,2,6444,10,0.00,2,2,0,2,5463,7402,616,6396,10,10,0,10,0.00,0.00,0.00,0.00
2016-01-17 17:20:00,2,8029,10,0.00,2,2,0,2,6727,9798,895,7748,10,10,0,10,0.00,0.00,0.00,0.00
2016-01-17 17:30:00,2,9377,10,0.00,2,2,0,2,8526,10046,496,9474,10,10,0,10,0.00,0.00,0.00,0.00
2016-01-17 17:40:00,2,8043,10,0.00,2,2,0,2,6774,9269,784,7876,10,10,0,10,0.00,0.00,0.00,0.00
2016-01-17 17:50:00,2,7472,10,0.00,2,2,0,2,6264,8572,685,7281,10,10,0,10,0.00,0.00,0.00,0.00
2016-01-17 18:00:00,2,8628,10,0.00,2,2,0,2,7447,9459,689,8937,10,10,0,10,0.00,0.00,0.00,0.00
2016-01-17 18:10:00,2,7168,10,0.00,2,2,0,2,5676,8054,763,7314,10,10,0,10,0.00,0.00,0.00,0.00
2016-01-17 18:20:00,2,5528,10,0.00,2,2,0,2,4408,7392,1039,5218,10,10,0,10,0.00,0.00,0.00,0.00
2016-01-17 18:30:00,2,7948,10,0.00,2,2,0,2,4088,14039,3720,6361,10,10,0,10,0.00,0.00,0.00,0.00
2016-01-17 18:40:00,2,9984,9,0.00,2,2,0,2,7925,13342,1793,9610,0,10,3,10,0.00,0.00,0.00,0.00
2016-01-17 18:50:00,2,11960,8,0.00,2,2,0,2,8305,15679,2322,12474,0,10,4,10,0.00,0.00,0.00,0.00
2016-01-17 19:00:00,2,13639,2,0.00,2,2,0,2,12418,16083,1048,13480,0,10,4,0,0.00,0.00,0.00,0.00
2016-01-17 19:10:00,2,12691,0,0.00,2,2,0,2,11407,14191,846,12653,0,0,0,0,0.00,0.00,0.00,0.00
2016-01-17 19:20:00,2,10773,0,0.00,2,2,0,2,8650,13874,1603,10866,0,0,0,0,0.00,0.00,0.00,0.00
2016-01-17 19:30:00,2,9131,0,0.00,2,2,0,2,7987,13256,1425,8728,0,0,0,0,0.00,0.00,0.00,0.00
2016-01-17 19:40:00,2,9929,0,0.00,2,2,0,2,8969,11137,719,9847,0,0,0,0,0.00,0.00,0.00,0.00
2016-01-17 19:50:00,2,6964,5,0.00,2,2,0,2,4708,9726,1817,6421,0,10,5,5,0.00,0.00,0.00,0.00
2016-01-17 20:00:00,2,4687,10,0.00,2,2,0,2,3353,6243,1041,4292,10,10,0,10,0.00,0.00,0.00,0.00
2016-01-17 20:10:00,2,4642,10,0.00,2,2,0,2,3988,6249,642,4434,10,10,0,10,0.00,0.00,0.00,0.00
2016-01-17 20:20:00,2,5456,10,0.00,2,2,0,2,4177,6223,635,5610,10,10,0,10,0.00,0.00,0.00,0.00
2016-01-17 20:30:00,2,6686,10,0.00,2,2,0,2,5591,7634,634,6552,10,10,0,10,0.00,0.00,0.00,0.00
2016-01-17 20:40:00,2,7185,10,0.00,2,2,0,2,6041,7686,522,7455,10,10,0,10,0.00,0.00,0.00,0.00
2016-01-17 20:50:00,2,4300,10,0.00,2,2,0,2,3007,6403,1059,4354,10,10,0,10,0.00,0.00,0.00,0.00
2016-01-17 21:00:00,2,5327,10,0.00,2,2,0,2,4088,6172,698,5490,10,10,0,10,0.00,0.00,0.00,0.00
2016-01-17 21:10:00,2,6818,10,0.00,2,2,0,2,6238,7431,354,6772,10,10,0,10,0.00,0.00,0.00,0.00
2016-01-17 21:20:00,2,6163,10,0.00,2,2,0,2,4250,8239,1383,6376,10,10,0,10,0.00,0.00,0.00,0.00
2016-01-17 21:30:00,2,4819,10,0.00,2,2,0,2,3240,7078,1355,4388,10,10,0,10,0.00,0.00,0.00,0.00
2016-01-17 21:40:00,2,4159,10,0.00,2,2,0,2,3476,4771,413,4244,10,10,0,10,0.00,0.00,0.00,0.00
2016-01-17 21:50:00,2,4553,10,0.00,2,2,0,2,3706,5722,768,4316,10,10,0,10,0.00,0.00,0.00,0.00
2016-01-17 22:00:00,2,4031,10,0.00,2,2,0,2,2170,5353,842,4150,10,10,0,10,0.00,0.00,0.00,0.00
2016-01-17 22:10:00,2,2222,10,0.00,2,2,0,2,1544,2863,438,2272,10,10,0,10,0.00,0.00,0.00,0.00
2016-01-17 22:20:00,2,1378,10,0.00,2,2,0,2,1241,1532,101,1358,10,10,0,10,0.00,0.00,0.00,0.00
2016-01-17 22:30:00,2,1557,10,0.00,2,2,0,2,1167,2337,345,1470,10,10,0,10,0.00,0.00,0.00,0.00
2016-01-17 22:40:00,2,1419,10,0.00,2,2,0,2,1159,1714,198,1440,10,10,0,10,0.00,0.00,0.00,0.00
2016-01-17 22:50:00,2,1235,10,0.00,2,2,0,2,1021,1694,185,1205,10,10,0,10,0.00,0.00,0.00,0.00
2016-01-17 23:00:00,2,1088,10,0.00,2,2,0,2,1002,1252,69,1080,10,10,0,10,0.00,0.00,0.00,0.00
2016-01-17 23:10:00,2,1220,10,0.00,2,2,0,2,1079,1473,98,1213,10,10,0,10,0.00,0.00,0.00,0.00
2016-01-17 23:20:00,2,1237,10,0.00,2,2,0,2,990,1547,175,1222,10,10,0,10,0.00,0.00,0.00,0.00
2016-01-17 23:30:00,2,1280,10,0.00,2,2,0,2,1196,1340,36,1278,10,10,0,10,0.00,0.00,0.00,0.00
2016-01-17 23:40:00,2,1050,10,0.00,2,2,0,2,905,1409,163,966,10,10,0,10,0.00,0.00,0.00,0.00
2016-01-17 23:50:00,2,811,30,0.00,2,2,0,2,721,917,56,811,10,33,7,33,0.00,0.00,0.00,0.00
